| time (UTC) | temp C | wind direction | speed KPH | gust KPH | rain 1hr cm | rain 24hr cm | rain mn cm | humidity % | barometer mb |
| 20260509012927 | 15 | 0.0 | 0.0 | 0.03 | 0.03 | 0.03 | 1 | 1034.5 | |
| 20260509011826 | 15 | 32 | 3.2 | 4.8 | 0.03 | 0.03 | 0.03 | 1 | 1034.5 |
| 20260509010913 | 15 | 225 | 0.0 | 1.6 | 0.00 | 0.00 | 0.00 | 1 | 1034.5 |
| 20260509005821 | 15 | 0.0 | 0.0 | 0.00 | 0.00 | 0.00 | 1 | 1034.3 | |
| 20260509004849 | 15 | 0.0 | 1.6 | 0.00 | 0.00 | 0.00 | 5 | 1034.0 | |
| 20260509003847 | 16 | 23 | 0.0 | 4.8 | 0.00 | 0.00 | 0.00 | 17 | 1033.9 |
| 20260509002905 | 16 | 0.0 | 0.0 | 0.00 | 0.00 | 0.00 | 30 | 1033.9 | |
| 20260509001843 | 16 | 338 | 1.6 | 1.6 | 0.00 | 0.00 | 0.00 | 37 | 1033.9 |
| 20260509000841 | 16 | 0.0 | 0.0 | 0.00 | 0.00 | 0.00 | 43 | 1033.9 | |
| 20260508235839 | 16 | 0.0 | 0.0 | 0.00 | 0.00 | 0.00 | 48 | 1033.9 | |
| 20260508234838 | 17 | 0.0 | 0.0 | 0.00 | 0.00 | 0.00 | 50 | 1033.9 | |
| 20260508233837 | 17 | 0.0 | 0.0 | 0.00 | 0.00 | 0.00 | 52 | 1033.9 | |
| 20260508233004 | 17 | 0.0 | 0.0 | 0.00 | 0.00 | 0.00 | 52 | 1033.9 | |
| 20260508231832 | 18 | 283 | 3.2 | 4.8 | 0.00 | 0.00 | 0.00 | 51 | 1033.9 |
| 20260508230830 | 18 | 227 | 3.2 | 8.0 | 0.00 | 0.00 | 0.00 | 48 | 1033.9 |
| 20260508225828 | 19 | 234 | 3.2 | 8.0 | 0.00 | 0.00 | 0.00 | 47 | 1033.9 |
| 20260508224827 | 19 | 215 | 6.4 | 11.3 | 0.00 | 0.00 | 0.00 | 46 | 1033.9 |
| 20260508223824 | 19 | 214 | 8.0 | 11.3 | 0.00 | 0.00 | 0.00 | 45 | 1033.5 |
| 20260508222822 | 20 | 209 | 3.2 | 6.4 | 0.00 | 0.00 | 0.00 | 45 | 1033.5 |
| 20260508221850 | 20 | 215 | 4.8 | 8.0 | 0.00 | 0.00 | 0.00 | 44 | 1033.5 |
| 20260508220908 | 19 | 225 | 4.8 | 6.4 | 0.00 | 0.00 | 0.00 | 44 | 1033.5 |
| 20260508215907 | 19 | 236 | 6.4 | 8.0 | 0.00 | 0.00 | 0.00 | 45 | 1033.5 |
| 20260508214905 | 20 | 221 | 4.8 | 11.3 | 0.00 | 0.00 | 0.00 | 44 | 1033.5 |
| 20260508213842 | 20 | 213 | 6.4 | 8.0 | 0.00 | 0.00 | 0.00 | 43 | 1033.5 |
| 20260508212910 | 20 | 224 | 8.0 | 12.9 | 0.00 | 0.00 | 0.00 | 43 | 1033.8 |
| 20260508211839 | 20 | 237 | 6.4 | 12.9 | 0.00 | 0.00 | 0.00 | 43 | 1033.9 |
| 20260508210836 | 20 | 208 | 3.2 | 6.4 | 0.00 | 0.00 | 0.00 | 43 | 1033.9 |
| 20260508205834 | 20 | 210 | 6.4 | 11.3 | 0.00 | 0.00 | 0.00 | 44 | 1034.2 |
| 20260508204852 | 20 | 212 | 6.4 | 8.0 | 0.00 | 0.00 | 0.00 | 43 | 1034.2 |
| 20260508203830 | 20 | 209 | 6.4 | 11.3 | 0.00 | 0.00 | 0.00 | 43 | 1034.2 |
| 20260508202828 | 20 | 292 | 3.2 | 6.4 | 0.00 | 0.00 | 0.00 | 43 | 1034.5 |
| 20260508201847 | 20 | 214 | 6.4 | 17.7 | 0.00 | 0.00 | 0.00 | 41 | 1034.5 |
| 20260508200825 | 20 | 228 | 6.4 | 16.1 | 0.00 | 0.00 | 0.00 | 42 | 1034.5 |
| 20260508195934 | 20 | 237 | 6.4 | 12.9 | 0.00 | 0.00 | 0.00 | 42 | 1034.5 |
| 20260508194852 | 20 | 221 | 3.2 | 8.0 | 0.00 | 0.00 | 0.00 | 42 | 1034.9 |
| 20260508193850 | 21 | 200 | 8.0 | 17.7 | 0.00 | 0.00 | 0.00 | 42 | 1034.9 |
| 20260508192818 | 21 | 249 | 6.4 | 16.1 | 0.00 | 0.00 | 0.00 | 42 | 1034.9 |
| 20260508191905 | 22 | 233 | 6.4 | 8.0 | 0.00 | 0.00 | 0.00 | 40 | 1034.9 |
| 20260508190843 | 22 | 252 | 11.3 | 22.5 | 0.00 | 0.00 | 0.00 | 39 | 1035.2 |
| 20260508185841 | 22 | 223 | 4.8 | 8.0 | 0.00 | 0.00 | 0.00 | 40 | 1035.2 |
| 20260508184839 | 22 | 227 | 8.0 | 16.1 | 0.00 | 0.00 | 0.00 | 39 | 1035.6 |
| 20260508183858 | 22 | 259 | 8.0 | 16.1 | 0.00 | 0.00 | 0.00 | 41 | 1035.6 |
| 20260508182836 | 22 | 225 | 6.4 | 12.9 | 0.00 | 0.00 | 0.00 | 42 | 1035.9 |
| 20260508181844 | 21 | 223 | 11.3 | 22.5 | 0.00 | 0.00 | 0.00 | 41 | 1035.9 |
| 20260508180831 | 22 | 253 | 4.8 | 11.3 | 0.00 | 0.00 | 0.00 | 42 | 1036.2 |
| 20260508175839 | 22 | 203 | 11.3 | 24.1 | 0.00 | 0.00 | 0.00 | 42 | 1036.2 |
| 20260508174827 | 21 | 229 | 3.2 | 6.4 | 0.00 | 0.00 | 0.00 | 43 | 1036.2 |
| 20260508173835 | 21 | 269 | 9.7 | 17.7 | 0.00 | 0.00 | 0.00 | 44 | 1036.7 |
| 20260508172854 | 21 | 206 | 8.0 | 11.3 | 0.00 | 0.00 | 0.00 | 44 | 1037.0 |
| 20260508171821 | 21 | 207 | 6.4 | 11.3 | 0.00 | 0.00 | 0.00 | 44 | 1037.0 |
| 20260508170819 | 21 | 200 | 8.0 | 16.1 | 0.00 | 0.00 | 0.00 | 42 | 1037.0 |
| 20260508165929 | 21 | 203 | 11.3 | 24.1 | 0.00 | 0.00 | 0.00 | 45 | 1037.3 |
| 20260508164845 | 21 | 191 | 12.9 | 17.7 | 0.00 | 0.00 | 0.00 | 44 | 1037.7 |
| 20260508163844 | 21 | 208 | 12.9 | 22.5 | 0.00 | 0.00 | 0.00 | 45 | 1037.7 |
| 20260508162841 | 21 | 210 | 11.3 | 17.7 | 0.00 | 0.00 | 0.00 | 45 | 1037.7 |
| 20260508161850 | 20 | 207 | 8.0 | 17.7 | 0.00 | 0.00 | 0.00 | 46 | 1037.8 |
| 20260508160838 | 20 | 240 | 6.4 | 16.1 | 0.00 | 0.00 | 0.00 | 45 | 1038.0 |
| 20260508155836 | 20 | 211 | 12.9 | 24.1 | 0.00 | 0.00 | 0.00 | 46 | 1038.0 |
| 20260508154855 | 20 | 248 | 3.2 | 8.0 | 0.00 | 0.00 | 0.00 | 46 | 1038.4 |
| 20260508153833 | 20 | 219 | 8.0 | 19.3 | 0.00 | 0.00 | 0.00 | 46 | 1038.4 |
| 20260508152840 | 20 | 214 | 9.7 | 16.1 | 0.00 | 0.00 | 0.00 | 47 | 1038.5 |
| 20260508151828 | 20 | 207 | 11.3 | 22.5 | 0.00 | 0.00 | 0.00 | 47 | 1038.7 |
| 20260508150826 | 20 | 216 | 6.4 | 12.9 | 0.00 | 0.00 | 0.00 | 48 | 1038.7 |
| 20260508145825 | 19 | 216 | 6.4 | 22.5 | 0.00 | 0.00 | 0.00 | 47 | 1038.7 |
| 20260508144823 | 18 | 211 | 4.8 | 12.9 | 0.00 | 0.00 | 0.00 | 49 | 1038.7 |
| 20260508143851 | 18 | 253 | 3.2 | 8.0 | 0.00 | 0.00 | 0.00 | 49 | 1038.7 |
| 20260508142848 | 18 | 211 | 6.4 | 16.1 | 0.00 | 0.00 | 0.00 | 49 | 1039.0 |
| 20260508141917 | 17 | 207 | 9.7 | 17.7 | 0.00 | 0.00 | 0.00 | 50 | 1039.0 |
| 20260508140844 | 17 | 232 | 6.4 | 12.9 | 0.00 | 0.00 | 0.00 | 51 | 1039.2 |
| 20260508135842 | 16 | 214 | 6.4 | 16.1 | 0.00 | 0.00 | 0.00 | 51 | 1039.4 |
| 20260508134841 | 16 | 242 | 6.4 | 11.3 | 0.00 | 0.00 | 0.00 | 46 | 1039.4 |
| 20260508133838 | 15 | 216 | 9.7 | 19.3 | 0.00 | 0.00 | 0.00 | 39 | 1039.4 |
| 20260508132836 | 14 | 225 | 4.8 | 8.0 | 0.00 | 0.00 | 0.00 | 34 | 1039.4 |
| 20260508131834 | 13 | 241 | 4.8 | 11.3 | 0.00 | 0.00 | 0.00 | 30 | 1039.4 |
| 20260508130832 | 13 | 225 | 4.8 | 8.0 | 0.00 | 0.00 | 0.00 | 26 | 1039.4 |
| 20260508125831 | 13 | 209 | 8.0 | 11.3 | 0.00 | 0.00 | 0.00 | 18 | 1039.4 |
| 20260508124828 | 12 | 212 | 4.8 | 8.0 | 0.00 | 0.00 | 0.00 | 1 | 1039.2 |
| 20260508123826 | 11 | 221 | 3.2 | 8.0 | 0.00 | 0.00 | 0.00 | 1 | 1039.2 |
| 20260508122824 | 10 | 216 | 4.8 | 8.0 | 0.00 | 0.00 | 0.00 | 1 | 1039.0 |
| 20260508121852 | 9 | 214 | 4.8 | 8.0 | 0.00 | 0.00 | 0.00 | 1 | 1039.0 |
| 20260508120820 | 8 | 237 | 3.2 | 6.4 | 0.00 | 0.00 | 0.00 | 1 | 1039.2 |
| 20260508115819 | 7 | 0.0 | 0.0 | 0.00 | 0.00 | 0.00 | 1 | 1039.0 | |
| 20260508114916 | 7 | 225 | 0.0 | 1.6 | 0.00 | 0.00 | 0.00 | 1 | 1039.0 |
| 20260508113844 | 7 | 0.0 | 0.0 | 0.00 | 0.00 | 0.00 | 1 | 1038.8 | |
| 20260508112953 | 7 | 0.0 | 0.0 | 0.00 | 0.00 | 0.00 | 1 | 1038.7 | |
| 20260508111910 | 7 | 0.0 | 0.0 | 0.00 | 0.00 | 0.00 | 1 | 1038.7 | |
| 20260508110849 | 7 | 0.0 | 0.0 | 0.00 | 0.00 | 0.00 | 1 | 1038.7 | |
| 20260508110006 | 7 | 0.0 | 0.0 | 0.00 | 0.00 | 0.00 | 1 | 1038.5 | |
| 20260508104955 | 7 | 0.0 | 0.0 | 0.00 | 0.00 | 0.00 | 1 | 1038.5 | |
| 20260508103832 | 6 | 225 | 0.0 | 1.6 | 0.00 | 0.00 | 0.00 | 1 | 1038.6 |
| 20260508103000 | 6 | 0.0 | 0.0 | 0.00 | 0.00 | 0.00 | 1 | 1038.7 | |
| 20260508101838 | 6 | 0.0 | 0.0 | 0.00 | 0.00 | 0.00 | 1 | 1038.5 | |
| 20260508100948 | 6 | 0.0 | 0.0 | 0.00 | 0.00 | 0.00 | 1 | 1038.4 | |
| 20260508095924 | 6 | 0.0 | 0.0 | 0.00 | 0.00 | 0.00 | 1 | 1038.4 | |
| 20260508094852 | 6 | 252 | 1.6 | 4.8 | 0.00 | 0.00 | 0.00 | 1 | 1038.4 |
| 20260508093920 | 5 | 0.0 | 0.0 | 0.00 | 0.00 | 0.00 | 1 | 1038.7 | |
| 20260508092918 | 5 | 0.0 | 0.0 | 0.00 | 0.00 | 0.00 | 1 | 1038.7 | |
| 20260508091916 | 5 | 0.0 | 0.0 | 0.00 | 0.00 | 0.00 | 1 | 1038.5 | |
| 20260508090913 | 5 | 0.0 | 0.0 | 0.00 | 0.00 | 0.00 | 1 | 1038.7 | |
| 20260508085911 | 5 | 0.0 | 0.0 | 0.00 | 0.00 | 0.00 | 1 | 1038.7 | |
| 20260508084928 | 4 | 0.0 | 0.0 | 0.00 | 0.00 | 0.00 | 1 | 1038.4 | |
| 20260508083856 | 4 | 0.0 | 0.0 | 0.00 | 0.00 | 0.00 | 1 | 1038.4 | |
| 20260508082934 | 4 | 0.0 | 0.0 | 0.00 | 0.00 | 0.00 | 1 | 1038.4 | |
| 20260508081902 | 4 | 338 | 0.0 | 1.6 | 0.00 | 0.00 | 0.00 | 1 | 1038.4 |
| 20260508080930 | 4 | 0.0 | 0.0 | 0.00 | 0.00 | 0.00 | 1 | 1038.4 | |
| 20260508075928 | 4 | 315 | 0.0 | 1.6 | 0.00 | 0.00 | 0.00 | 1 | 1038.4 |
| 20260508074856 | 4 | 0.0 | 0.0 | 0.00 | 0.00 | 0.00 | 1 | 1038.4 | |
| 20260508073924 | 4 | 0.0 | 0.0 | 0.00 | 0.00 | 0.00 | 1 | 1038.4 | |
| 20260508072852 | 4 | 248 | 0.0 | 1.6 | 0.00 | 0.00 | 0.00 | 1 | 1038.4 |
| 20260508071920 | 4 | 0.0 | 0.0 | 0.00 | 0.00 | 0.00 | 1 | 1038.4 | |
| 20260508070918 | 5 | 0.0 | 0.0 | 0.00 | 0.00 | 0.00 | 1 | 1038.4 | |
| 20260508065917 | 5 | 0.0 | 0.0 | 0.00 | 0.00 | 0.00 | 1 | 1038.7 | |
| 20260508064956 | 5 | 0.0 | 0.0 | 0.00 | 0.00 | 0.00 | 1 | 1038.7 | |
| 20260508063922 | 5 | 0.0 | 0.0 | 0.00 | 0.00 | 0.00 | 1 | 1039.0 | |
| 20260508062910 | 5 | 0.0 | 0.0 | 0.00 | 0.00 | 0.00 | 1 | 1039.0 | |
| 20260508061958 | 5 | 0.0 | 0.0 | 0.00 | 0.00 | 0.00 | 1 | 1039.0 | |
| 20260508060936 | 5 | 0.0 | 0.0 | 0.00 | 0.00 | 0.00 | 1 | 1039.0 | |
| 20260508055904 | 5 | 0.0 | 0.0 | 0.00 | 0.00 | 0.00 | 1 | 1039.0 | |
| 20260508054933 | 5 | 0.0 | 0.0 | 0.00 | 0.00 | 0.00 | 1 | 1039.0 | |
| 20260508053830 | 5 | 0.0 | 0.0 | 0.00 | 0.00 | 0.00 | 1 | 1039.4 | |
| 20260508052927 | 5 | 0.0 | 0.0 | 0.00 | 0.00 | 0.00 | 1 | 1039.4 | |
| 20260508051827 | 5 | 0.0 | 0.0 | 0.00 | 0.00 | 0.00 | 1 | 1039.0 | |
| 20260508050824 | 5 | 0.0 | 0.0 | 0.00 | 0.00 | 0.00 | 1 | 1039.0 | |
| 20260508045821 | 5 | 0.0 | 0.0 | 0.00 | 0.00 | 0.00 | 1 | 1039.0 | |
| 20260508045010 | 5 | 0.0 | 0.0 | 0.00 | 0.00 | 0.00 | 1 | 1039.0 | |
| 20260508043918 | 5 | 0.0 | 0.0 | 0.00 | 0.00 | 0.00 | 1 | 1039.0 | |
| 20260508042927 | 5 | 0.0 | 0.0 | 0.00 | 0.00 | 0.00 | 1 | 1039.0 | |
| 20260508041914 | 5 | 0.0 | 0.0 | 0.00 | 0.00 | 0.00 | 1 | 1039.0 | |
| 20260508040912 | 6 | 0.0 | 0.0 | 0.00 | 0.00 | 0.00 | 1 | 1039.0 | |
| 20260508035940 | 6 | 0.0 | 0.0 | 0.00 | 0.00 | 0.00 | 1 | 1038.7 | |
| 20260508034908 | 6 | 0.0 | 0.0 | 0.00 | 0.00 | 0.00 | 1 | 1038.7 | |
| 20260508033836 | 6 | 0.0 | 0.0 | 0.00 | 0.00 | 0.00 | 1 | 1038.9 | |
| 20260508033035 | 6 | 0.0 | 0.0 | 0.00 | 0.00 | 0.00 | 3 | 1039.0 | |
| 20260508031833 | 6 | 248 | 1.6 | 1.6 | 0.00 | 0.00 | 0.00 | 10 | 1039.0 |
| 20260508031032 | 6 | 0.0 | 0.0 | 0.00 | 0.00 | 0.00 | 16 | 1038.7 | |
| 20260508025730 | 6 | 0.0 | 0.0 | 0.00 | 0.00 | 0.00 | 17 | 1038.7 | |
| 20260508024727 | 6 | 0.0 | 0.0 | 0.00 | 0.00 | 0.00 | 22 | 1039.0 | |
| 20260508023705 | 6 | 0.0 | 0.0 | 0.00 | 0.00 | 0.00 | 28 | 1039.0 | |
| 20260508022624 | 7 | 0.0 | 0.0 | 0.00 | 0.00 | 0.00 | 34 | 1039.0 | |
| 20260508021621 | 7 | 0.0 | 0.0 | 0.00 | 0.00 | 0.00 | 38 | 1039.0 | |
| 20260508020709 | 7 | 0.0 | 0.0 | 0.00 | 0.00 | 0.00 | 42 | 1038.7 | |
| 20260508015747 | 7 | 0.0 | 0.0 | 0.00 | 0.00 | 0.00 | 44 | 1038.7 | |
| 20260508014555 | 8 | 0.0 | 0.0 | 0.00 | 0.00 | 0.00 | 49 | 1038.7 |